Melfa, VA

12:04 AM EDT on July 30, 2016 (GMT -0400)
Accomack County

Weather History for KMFV - December, 2012

Change the Weather History Date:

Thursday, December 6, 2012

  Actual Average (KWAL) Record (KWAL)
Temperature  
Mean Temperature 37 °F 43 °F  
Max Temperature 44 °F 52 °F 75 °F (1998)
Min Temperature 30 °F 35 °F 23 °F (1990)
Degree Days  
Heating Degree Days 28    
Month to date heating degree days  
Since 1 July heating degree days  
Cooling Degree Days 0    
Month to date cooling degree days  
Year to date cooling degree days  
Moisture  
Dew Point 27 °F    
Average Humidity 65    
Maximum Humidity 93    
Minimum Humidity 52    
Precipitation  
Precipitation 0.00 in 0.11 in 0.42 in (1999)
Month to date precipitation 0.68  
Year to date precipitation 38.09  
Sea Level Pressure  
Sea Level Pressure 30.31 in    
Wind  
Wind Speed 7 mph (NE)    
Max Wind Speed 12 mph    
Max Gust Speed 18 mph    
Visibility 10 miles    
Events      
T = Trace of Precipitation, MM = Missing Value Source: NWS Daily Summary

Daily Weather History Graph

Daily Weather History Graph

Search for Another Location

Airport or City:

Trip Planner

Search our weather history database for the weather conditions in past years. The results will help you decide how hot, cold, wet, or windy it might be!

Date:

Astronomy

Dec. 06, 2012 Rise Set
Actual Time 7:04 AM EST 4:44 PM EST
Civil Twilight 6:35 AM EST 5:13 PM EST
Nautical Twilight 6:02 AM EST 5:46 PM EST
Astronomical Twilight 5:30 AM EST 6:17 PM EST
Moon No Moon Rise 12:02 PM EST (12/6)
Length of Visible Light 10h 38m
Length of Day
9h 40m
Waning Gibbous, 49% of the Moon is Illuminated
Dec 6
Waning Gibbous
Dec 13
New
Dec 20
First Quarter
Dec 28
Full
Jan 4
Last Quarter

Hourly Weather History & Observations

Time (EST) Temp. Windchill Dew Point Humidity Pressure Visibility Wind Dir Wind Speed Gust Speed Precip Events Conditions
12:18 AM 44.6 °F 39.7 °F 28.4 °F 53% 30.25 in 10.0 mi North 9.2 mph 17.3 mph N/A   Clear
12:39 AM 42.8 °F 37.5 °F 28.4 °F 57% 30.25 in 10.0 mi NNE 9.2 mph - N/A   Clear
12:59 AM 42.8 °F 37.5 °F 28.4 °F 57% 30.25 in 10.0 mi North 9.2 mph - N/A   Clear
1:19 AM 42.8 °F 37.5 °F 28.4 °F 57% 30.26 in 10.0 mi NNE 9.2 mph 16.1 mph N/A   Clear
1:44 AM 41.0 °F 35.8 °F 26.6 °F 57% 30.27 in 10.0 mi NNE 8.1 mph - N/A   Clear
2:04 AM 41.0 °F 34.7 °F 24.8 °F 53% 30.28 in 10.0 mi NNE 10.4 mph - N/A   Clear
2:19 AM 39.2 °F 33.6 °F 24.8 °F 56% 30.29 in 10.0 mi NNE 8.1 mph 17.3 mph N/A   Clear
2:39 AM 39.2 °F 32.5 °F 23.0 °F 52% 30.29 in 10.0 mi North 10.4 mph - N/A   Clear
3:00 AM 39.2 °F 33.0 °F 23.0 °F 52% 30.29 in 10.0 mi NNE 9.2 mph 17.3 mph N/A   Clear
3:19 AM 39.2 °F 33.6 °F 23.0 °F 52% 30.30 in 10.0 mi NNE 8.1 mph 18.4 mph N/A   Clear
3:39 AM 39.2 °F 32.5 °F 23.0 °F 52% 30.30 in 10.0 mi NNE 10.4 mph - N/A   Clear
4:20 AM 37.4 °F 31.4 °F 21.2 °F 52% 30.29 in 10.0 mi NNE 8.1 mph - N/A   Clear
4:40 AM 37.4 °F 30.8 °F 23.0 °F 56% 30.30 in 10.0 mi NNE 9.2 mph - N/A   Clear
5:00 AM 37.4 °F 31.4 °F 21.2 °F 52% 30.30 in 10.0 mi NNE 8.1 mph - N/A   Clear
5:20 AM 37.4 °F 32.1 °F 21.2 °F 52% 30.30 in 10.0 mi NE 6.9 mph - N/A   Clear
5:46 AM 37.4 °F 30.8 °F 21.2 °F 52% 30.32 in 10.0 mi NNE 9.2 mph - N/A   Clear
6:01 AM 37.4 °F 30.8 °F 21.2 °F 52% 30.31 in 10.0 mi NNE 9.2 mph - N/A   Clear
6:20 AM 35.6 °F 29.9 °F 21.2 °F 56% 30.32 in 10.0 mi NE 6.9 mph - N/A   Clear
6:40 AM 35.6 °F 29.9 °F 21.2 °F 56% 30.33 in 10.0 mi NNE 6.9 mph - N/A   Clear
7:00 AM 35.6 °F 30.7 °F 21.2 °F 56% 30.34 in 10.0 mi NNE 5.8 mph - N/A   Clear
7:21 AM 35.6 °F 29.9 °F 21.2 °F 56% 30.35 in 10.0 mi NNE 6.9 mph - N/A   Clear
8:00 AM 35.6 °F 31.7 °F 23.0 °F 60% 30.36 in 10.0 mi NNE 4.6 mph - N/A   Clear
8:20 AM 37.4 °F 31.4 °F 24.8 °F 60% 30.36 in 10.0 mi North 8.1 mph - N/A   Clear
8:37 AM 37.4 °F 32.8 °F 24.8 °F 60% 30.36 in 10.0 mi NNE 5.8 mph - N/A   Clear
8:55 AM 39.2 °F 33.0 °F 24.8 °F 56% 30.36 in 10.0 mi NE 9.2 mph - N/A   Clear
9:15 AM 39.2 °F 34.2 °F 24.8 °F 56% 30.37 in 10.0 mi NE 6.9 mph - N/A   Clear
9:36 AM 39.2 °F 33.0 °F 24.8 °F 56% 30.37 in 10.0 mi NE 9.2 mph - N/A   Clear
9:55 AM 41.0 °F 35.2 °F 24.8 °F 53% 30.38 in 10.0 mi NE 9.2 mph 16.1 mph N/A   Clear
10:15 AM 41.0 °F 35.2 °F 24.8 °F 53% 30.37 in 10.0 mi NE 9.2 mph - N/A   Clear
10:35 AM 41.0 °F 36.4 °F 24.8 °F 53% 30.37 in 10.0 mi East 6.9 mph - N/A   Clear
10:55 AM 42.8 °F 36.6 °F 26.6 °F 53% 30.37 in 10.0 mi ENE 11.5 mph - N/A   Clear
11:15 AM 42.8 °F 37.0 °F 26.6 °F 53% 30.35 in 10.0 mi ENE 10.4 mph - N/A   Clear
11:55 AM 42.8 °F 40.1 °F 26.6 °F 53% 30.34 in 10.0 mi NE 4.6 mph - N/A   Clear
12:15 PM 44.6 °F 40.2 °F 28.4 °F 53% 30.34 in 10.0 mi East 8.1 mph - N/A   Clear
12:35 PM 44.6 °F 42.2 °F 28.4 °F 53% 30.33 in 10.0 mi NE 4.6 mph - N/A   Clear
12:55 PM 44.6 °F 40.2 °F 28.4 °F 53% 30.32 in 10.0 mi East 8.1 mph - N/A   Clear
1:15 PM 44.6 °F 42.2 °F 28.4 °F 53% 30.32 in 10.0 mi East 4.6 mph - N/A   Clear
1:36 PM 44.6 °F 41.4 °F 28.4 °F 53% 30.31 in 10.0 mi SE 5.8 mph - N/A   Clear
1:55 PM 44.6 °F 41.4 °F 28.4 °F 53% 30.31 in 10.0 mi NE 5.8 mph - N/A   Clear
2:15 PM 44.6 °F 43.1 °F 30.2 °F 57% 30.30 in 10.0 mi ESE 3.5 mph - N/A   Clear
2:55 PM 44.6 °F 42.2 °F 30.2 °F 57% 30.30 in 10.0 mi ESE 4.6 mph - N/A   Clear
3:16 PM 44.6 °F 42.2 °F 30.2 °F 57% 30.30 in 10.0 mi ESE 4.6 mph - N/A   Clear
3:35 PM 42.8 °F - 30.2 °F 61% 30.31 in 10.0 mi Calm Calm - N/A   Clear
3:55 PM 42.8 °F 40.1 °F 30.2 °F 61% 30.31 in 10.0 mi SE 4.6 mph - N/A   Clear
4:15 PM 42.8 °F 41.1 °F 30.2 °F 61% 30.30 in 10.0 mi ESE 3.5 mph - N/A   Clear
4:35 PM 41.0 °F 39.0 °F 30.2 °F 65% 30.31 in 10.0 mi SE 3.5 mph - N/A   Clear
4:55 PM 39.2 °F 37.0 °F 30.2 °F 70% 30.31 in 10.0 mi SE 3.5 mph - N/A   Clear
5:15 PM 37.4 °F - 30.2 °F 75% 30.31 in 10.0 mi Calm Calm - N/A   Clear
5:35 PM 35.6 °F - 30.2 °F 81% 30.30 in 10.0 mi Calm Calm - N/A   Clear
5:55 PM 35.6 °F - 30.2 °F 81% 30.31 in 10.0 mi Calm Calm - N/A   Clear
6:15 PM 35.6 °F - 30.2 °F 81% 30.30 in 10.0 mi Calm Calm - N/A   Clear
6:35 PM 33.8 °F - 30.2 °F 87% 30.31 in 10.0 mi Calm Calm - N/A   Clear
7:16 PM 33.8 °F - 30.2 °F 87% 30.31 in 10.0 mi Calm Calm - N/A   Clear
7:35 PM 32.0 °F - 28.4 °F 87% 30.30 in 10.0 mi Calm Calm - N/A   Clear
7:55 PM 32.0 °F - 28.4 °F 87% 30.31 in 10.0 mi Calm Calm - N/A   Clear
8:15 PM 32.0 °F - 28.4 °F 87% 30.30 in 10.0 mi Calm Calm - N/A   Clear
8:35 PM 30.2 °F - 28.4 °F 93% 30.30 in 10.0 mi Calm Calm - N/A   Clear
8:55 PM 30.2 °F - 28.4 °F 93% 30.30 in 10.0 mi Calm Calm - N/A   Clear
9:35 PM 30.2 °F - 28.4 °F 93% 30.30 in 10.0 mi Calm Calm - N/A   Clear
9:55 PM 30.2 °F - 28.4 °F 93% 30.29 in 10.0 mi Calm Calm - N/A   Clear
10:15 PM 30.2 °F 26.7 °F 28.4 °F 93% 30.29 in 10.0 mi NE 3.5 mph - N/A   Clear
10:36 PM 30.2 °F - 28.4 °F 93% 30.28 in 10.0 mi Calm Calm - N/A   Clear
10:56 PM 30.2 °F 26.7 °F 28.4 °F 93% 30.28 in 10.0 mi NE 3.5 mph - N/A   Clear
11:15 PM 30.2 °F - 28.4 °F 93% 30.27 in 10.0 mi Calm Calm - N/A   Clear
11:35 PM 30.2 °F - 26.6 °F 86% 30.28 in 10.0 mi Calm Calm - N/A   Clear
11:55 PM 30.2 °F - 28.4 °F 93% 30.27 in 10.0 mi Calm Calm - N/A   Clear